Year,Month,Day,Hour,Minute,Value (Times are PST for temperature in C)
2008,09,02,00,00,11.30
2008,09,02,00,01,11.30
2008,09,02,00,02,11.30
2008,09,02,00,03,11.30
2008,09,02,00,04,11.30
2008,09,02,00,05,11.20
2008,09,02,00,06,11.20
2008,09,02,00,07,11.20
2008,09,02,00,08,11.20
2008,09,02,00,09,11.20
2008,09,02,00,10,11.20
2008,09,02,00,11,11.20
2008,09,02,00,12,11.20
2008,09,02,00,13,11.20
2008,09,02,00,14,11.20
2008,09,02,00,15,11.20
2008,09,02,00,16,11.20
2008,09,02,00,17,11.20
2008,09,02,00,18,11.20
2008,09,02,00,19,11.20
2008,09,02,00,20,11.20
2008,09,02,00,21,11.20
2008,09,02,00,22,11.20
2008,09,02,00,23,11.10
2008,09,02,00,24,11.10
2008,09,02,00,25,11.10
2008,09,02,00,26,11.10
2008,09,02,00,27,11.10
2008,09,02,00,28,11.10
2008,09,02,00,29,11.10
2008,09,02,00,30,11.10
2008,09,02,00,31,11.10
2008,09,02,00,32,11.10
2008,09,02,00,33,11.10
2008,09,02,00,34,11.10
2008,09,02,00,35,11.10
2008,09,02,00,36,11.10
2008,09,02,00,37,11.10
2008,09,02,00,38,11.10
2008,09,02,00,39,11.10
2008,09,02,00,40,11.10
2008,09,02,00,41,11.10
2008,09,02,00,42,11.10
2008,09,02,00,43,11.10
2008,09,02,00,44,11.10
2008,09,02,00,45,11.10
2008,09,02,00,46,11.00
2008,09,02,00,47,10.90
2008,09,02,00,48,10.90
2008,09,02,00,49,10.90
2008,09,02,00,50,10.90
2008,09,02,00,51,10.90
2008,09,02,00,52,10.90
2008,09,02,00,53,10.90
2008,09,02,00,54,10.90
2008,09,02,00,55,10.90
2008,09,02,00,56,10.90
2008,09,02,00,57,10.80
2008,09,02,00,58,10.80
2008,09,02,00,59,10.80
2008,09,02,01,00,10.80
2008,09,02,01,01,10.80
2008,09,02,01,02,10.70
2008,09,02,01,03,10.70
2008,09,02,01,04,10.70
2008,09,02,01,05,10.70
2008,09,02,01,06,10.60
2008,09,02,01,07,10.60
2008,09,02,01,08,10.60
2008,09,02,01,09,10.60
2008,09,02,01,10,10.60
2008,09,02,01,11,10.60
2008,09,02,01,12,10.60
2008,09,02,01,13,10.60
2008,09,02,01,14,10.60
2008,09,02,01,15,10.60
2008,09,02,01,16,10.60
2008,09,02,01,17,10.60
2008,09,02,01,18,10.60
2008,09,02,01,19,10.60
2008,09,02,01,20,10.60
2008,09,02,01,21,10.60
2008,09,02,01,22,10.60
2008,09,02,01,23,10.60
2008,09,02,01,24,10.40
2008,09,02,01,25,10.40
2008,09,02,01,26,10.40
2008,09,02,01,27,10.40
2008,09,02,01,28,10.40
2008,09,02,01,29,10.40
2008,09,02,01,30,10.40
2008,09,02,01,31,10.40
2008,09,02,01,32,10.40
2008,09,02,01,33,10.40
2008,09,02,01,34,10.30
2008,09,02,01,35,10.30
2008,09,02,01,36,10.30
2008,09,02,01,37,10.30
2008,09,02,01,38,10.30
2008,09,02,01,39,10.30
2008,09,02,01,40,10.30
2008,09,02,01,41,10.30
2008,09,02,01,42,10.30
2008,09,02,01,43,10.30
2008,09,02,01,44,10.30
2008,09,02,01,45,10.30
2008,09,02,01,46,10.30
2008,09,02,01,47,10.30
2008,09,02,01,48,10.30
2008,09,02,01,49,10.30
2008,09,02,01,50,10.30
2008,09,02,01,51,10.30
2008,09,02,01,52,10.20
2008,09,02,01,53,10.20
2008,09,02,01,54,10.20
2008,09,02,01,55,10.20
2008,09,02,01,56,10.20
2008,09,02,01,57,10.20
2008,09,02,01,58,10.20
2008,09,02,01,59,10.20
2008,09,02,02,00,10.20
2008,09,02,02,01,10.20
2008,09,02,02,02,10.20
2008,09,02,02,03,10.20
2008,09,02,02,04,10.20
2008,09,02,02,05,10.20
2008,09,02,02,06,10.10
2008,09,02,02,07,10.10
2008,09,02,02,08,10.10
2008,09,02,02,09,10.10
2008,09,02,02,10,10.10
2008,09,02,02,11,10.10
2008,09,02,02,12,10.10
2008,09,02,02,13,10.10
2008,09,02,02,14,10.00
2008,09,02,02,15,9.90
2008,09,02,02,16,9.90
2008,09,02,02,17,9.90
2008,09,02,02,18,9.90
2008,09,02,02,19,9.90
2008,09,02,02,20,9.90
2008,09,02,02,21,9.90
2008,09,02,02,22,9.90
2008,09,02,02,23,9.90
2008,09,02,02,24,9.90
2008,09,02,02,25,9.90
2008,09,02,02,26,9.90
2008,09,02,02,27,9.90
2008,09,02,02,28,9.90
2008,09,02,02,29,9.90
2008,09,02,02,30,9.90
2008,09,02,02,31,9.90
2008,09,02,02,32,9.90
2008,09,02,02,33,9.90
2008,09,02,02,34,9.90
2008,09,02,02,35,9.90
2008,09,02,02,36,9.90
2008,09,02,02,37,9.90
2008,09,02,02,38,9.90
2008,09,02,02,39,9.90
2008,09,02,02,40,9.90
2008,09,02,02,41,9.90
2008,09,02,02,42,9.90
2008,09,02,02,43,9.90
2008,09,02,02,44,9.80
2008,09,02,02,45,9.80
2008,09,02,02,46,9.80
2008,09,02,02,47,9.80
2008,09,02,02,48,9.80
2008,09,02,02,49,9.80
2008,09,02,02,50,9.80
2008,09,02,02,51,9.80
2008,09,02,02,52,9.70
2008,09,02,02,53,9.70
2008,09,02,02,54,9.70
2008,09,02,02,55,9.70
2008,09,02,02,56,9.70
2008,09,02,02,57,9.80
2008,09,02,02,58,9.80
2008,09,02,02,59,9.80
2008,09,02,03,00,9.90
2008,09,02,03,01,9.90
2008,09,02,03,02,9.80
2008,09,02,03,03,9.80
2008,09,02,03,04,9.80
2008,09,02,03,05,9.70
2008,09,02,03,06,9.70
2008,09,02,03,07,9.70
2008,09,02,03,08,9.70
2008,09,02,03,09,9.70
2008,09,02,03,10,9.60
2008,09,02,03,11,9.60
2008,09,02,03,12,9.60
2008,09,02,03,13,9.60
2008,09,02,03,14,9.60
2008,09,02,03,15,9.50
2008,09,02,03,16,9.50
2008,09,02,03,17,9.50
2008,09,02,03,18,9.50
2008,09,02,03,19,9.50
2008,09,02,03,20,9.50
2008,09,02,03,21,9.50
2008,09,02,03,22,9.50
2008,09,02,03,23,9.60
2008,09,02,03,24,9.60
2008,09,02,03,25,9.60
2008,09,02,03,26,9.60
2008,09,02,03,27,9.60
2008,09,02,03,28,9.60
2008,09,02,03,29,9.60
2008,09,02,03,30,9.60
2008,09,02,03,31,9.60
2008,09,02,03,32,9.60
2008,09,02,03,33,9.60
2008,09,02,03,34,9.60
2008,09,02,03,35,9.60
2008,09,02,03,36,9.50
2008,09,02,03,37,9.50
2008,09,02,03,38,9.50
2008,09,02,03,39,9.50
2008,09,02,03,40,9.50
2008,09,02,03,41,9.50
2008,09,02,03,42,9.50
2008,09,02,03,43,9.50
2008,09,02,03,44,9.50
2008,09,02,03,45,9.50
2008,09,02,03,46,9.50
2008,09,02,03,47,9.50
2008,09,02,03,48,9.60
2008,09,02,03,49,9.60
2008,09,02,03,50,9.70
2008,09,02,03,51,9.70
2008,09,02,03,52,9.70
2008,09,02,03,53,9.70
2008,09,02,03,54,9.70
2008,09,02,03,55,9.70
2008,09,02,03,56,9.70
2008,09,02,03,57,9.70
2008,09,02,03,58,9.70
2008,09,02,03,59,9.60
2008,09,02,04,00,9.60
2008,09,02,04,01,9.50
2008,09,02,04,02,9.50
2008,09,02,04,03,9.50
2008,09,02,04,04,9.50
2008,09,02,04,05,9.50
2008,09,02,04,06,9.50
2008,09,02,04,07,9.60
2008,09,02,04,08,9.70
2008,09,02,04,09,9.70
2008,09,02,04,10,9.70
2008,09,02,04,29,9.40
2008,09,02,04,51,9.10
2008,09,02,05,15,9.10
2008,09,02,05,31,8.70
2008,09,02,05,51,8.50
2008,09,02,06,08,8.60
2008,09,02,06,37,8.60
2008,09,02,06,51,8.70
2008,09,02,06,52,8.80
2008,09,02,06,53,8.80
2008,09,02,06,54,8.80
2008,09,02,06,55,8.80
2008,09,02,06,56,8.80
2008,09,02,06,57,8.80
2008,09,02,06,58,8.80
2008,09,02,06,59,8.90
2008,09,02,07,00,8.90
2008,09,02,07,01,8.90
2008,09,02,07,02,8.90
2008,09,02,07,03,9.00
2008,09,02,07,04,9.00
2008,09,02,07,05,9.00
2008,09,02,07,06,9.00
2008,09,02,07,07,9.00
2008,09,02,07,08,9.10
2008,09,02,07,09,9.10
2008,09,02,07,10,9.10
2008,09,02,07,11,9.10
2008,09,02,07,12,9.20
2008,09,02,07,13,9.20
2008,09,02,07,14,9.10
2008,09,02,07,15,9.10
2008,09,02,07,16,9.00
2008,09,02,07,17,9.00
2008,09,02,07,18,9.00
2008,09,02,07,19,9.00
2008,09,02,07,20,8.90
2008,09,02,07,21,8.90
2008,09,02,07,22,8.90
2008,09,02,07,23,8.90
2008,09,02,07,24,8.90
2008,09,02,07,25,9.00
2008,09,02,07,26,9.00
2008,09,02,07,27,9.00
2008,09,02,07,28,9.00
2008,09,02,07,29,9.10
2008,09,02,07,30,9.10
2008,09,02,07,31,9.10
2008,09,02,07,32,9.20
2008,09,02,07,33,9.20
2008,09,02,07,34,9.20
2008,09,02,07,35,9.20
2008,09,02,07,36,9.30
2008,09,02,07,37,9.30
2008,09,02,07,38,9.40
2008,09,02,07,39,9.40
2008,09,02,07,40,9.50
2008,09,02,07,41,9.50
2008,09,02,07,42,9.60
2008,09,02,07,43,9.60
2008,09,02,07,44,9.70
2008,09,02,07,45,9.70
2008,09,02,07,46,9.70
2008,09,02,07,47,9.70
2008,09,02,07,48,9.70
2008,09,02,07,49,9.80
2008,09,02,07,50,9.80
2008,09,02,07,51,9.90
2008,09,02,07,52,9.90
2008,09,02,07,53,9.90
2008,09,02,07,54,9.90
2008,09,02,07,55,10.00
2008,09,02,07,56,10.10
2008,09,02,07,57,10.10
2008,09,02,07,58,10.10
2008,09,02,07,59,10.10
2008,09,02,08,00,10.10
2008,09,02,08,01,10.10
2008,09,02,08,02,10.10
2008,09,02,08,03,10.10
2008,09,02,08,04,10.00
2008,09,02,08,05,9.90
2008,09,02,08,06,9.90
2008,09,02,08,07,9.90
2008,09,02,08,08,9.90
2008,09,02,08,09,9.90
2008,09,02,08,10,9.90
2008,09,02,08,11,9.90
2008,09,02,08,12,10.00
2008,09,02,08,13,10.10
2008,09,02,08,14,10.10
2008,09,02,08,15,10.10
2008,09,02,08,16,10.10
2008,09,02,08,17,10.10
2008,09,02,08,18,10.10
2008,09,02,08,19,10.20
2008,09,02,08,20,10.20
2008,09,02,08,21,10.20
2008,09,02,08,22,10.30
2008,09,02,08,23,10.30
2008,09,02,08,24,10.40
2008,09,02,08,25,10.40
2008,09,02,08,26,10.40
2008,09,02,08,27,10.40
2008,09,02,08,28,10.40
2008,09,02,08,29,10.40
2008,09,02,08,30,10.50
2008,09,02,08,31,10.60
2008,09,02,08,32,10.60
2008,09,02,08,33,10.60
2008,09,02,08,34,10.60
2008,09,02,08,35,10.60
2008,09,02,08,36,10.60
2008,09,02,08,37,10.60
2008,09,02,08,38,10.70
2008,09,02,08,39,10.70
2008,09,02,08,40,10.80
2008,09,02,08,41,10.90
2008,09,02,08,42,10.90
2008,09,02,08,43,11.00
2008,09,02,08,44,11.10
2008,09,02,08,45,11.10
2008,09,02,08,46,11.10
2008,09,02,08,47,11.20
2008,09,02,08,48,11.20
2008,09,02,08,49,11.20
2008,09,02,08,50,11.20
2008,09,02,08,51,11.30
2008,09,02,08,52,11.30
2008,09,02,08,53,11.30
2008,09,02,08,54,11.30
2008,09,02,08,55,11.30
2008,09,02,08,56,11.40
2008,09,02,08,57,11.40
2008,09,02,08,58,11.40
2008,09,02,08,59,11.40
2008,09,02,09,00,11.40
2008,09,02,09,01,11.30
2008,09,02,09,02,11.30
2008,09,02,09,03,11.30
2008,09,02,09,04,11.30
2008,09,02,09,05,11.30
2008,09,02,09,06,11.30
2008,09,02,09,07,11.30
2008,09,02,09,08,11.30
2008,09,02,09,09,11.20
2008,09,02,09,10,11.20
2008,09,02,09,11,11.20
2008,09,02,09,12,11.10
2008,09,02,09,13,11.10
2008,09,02,09,14,11.10
2008,09,02,09,15,11.10
2008,09,02,09,16,11.10
2008,09,02,09,17,11.00
2008,09,02,09,18,10.90
2008,09,02,09,19,10.90
2008,09,02,09,20,10.80
2008,09,02,09,21,10.80
2008,09,02,09,22,10.80
2008,09,02,09,23,10.80
2008,09,02,09,24,10.80
2008,09,02,09,25,10.80
2008,09,02,09,26,10.80
2008,09,02,09,27,10.80
2008,09,02,09,28,10.70
2008,09,02,09,29,10.70
2008,09,02,09,30,10.60
2008,09,02,09,31,10.60
2008,09,02,09,32,10.60
2008,09,02,09,33,10.60
2008,09,02,09,34,10.60
2008,09,02,09,35,10.60
2008,09,02,09,36,10.60
2008,09,02,09,37,10.60
2008,09,02,09,38,10.60
2008,09,02,09,39,10.50
2008,09,02,09,40,10.40
2008,09,02,09,41,10.40
2008,09,02,09,42,10.40
2008,09,02,09,43,10.40
2008,09,02,09,44,10.40
2008,09,02,09,45,10.40
2008,09,02,09,46,10.40
2008,09,02,09,47,10.40
2008,09,02,09,48,10.40
2008,09,02,09,49,10.40
2008,09,02,09,50,10.40
2008,09,02,09,51,10.40
2008,09,02,09,52,10.40
2008,09,02,09,53,10.40
2008,09,02,09,54,10.40
2008,09,02,09,55,10.40
2008,09,02,09,56,10.40
2008,09,02,09,57,10.40
2008,09,02,09,58,10.30
2008,09,02,09,59,10.30
2008,09,02,10,00,10.30
2008,09,02,10,01,10.30
2008,09,02,10,02,10.40
2008,09,02,10,03,10.40
2008,09,02,10,04,10.40
2008,09,02,10,05,10.40
2008,09,02,10,06,10.40
2008,09,02,10,07,10.40
2008,09,02,10,08,10.50
2008,09,02,10,09,10.60
2008,09,02,10,10,10.60
2008,09,02,10,11,10.60
2008,09,02,10,12,10.60
2008,09,02,10,13,10.60
2008,09,02,10,14,10.70
2008,09,02,10,15,10.70
2008,09,02,10,16,10.80
2008,09,02,10,17,10.80
2008,09,02,10,18,10.80
2008,09,02,10,19,10.80
2008,09,02,10,20,10.80
2008,09,02,10,21,10.80
2008,09,02,10,22,10.80
2008,09,02,10,23,10.80
2008,09,02,10,24,10.90
2008,09,02,10,25,10.90
2008,09,02,10,26,10.90
2008,09,02,10,27,10.90
2008,09,02,10,28,10.90
2008,09,02,10,29,10.90
2008,09,02,10,30,10.90
2008,09,02,10,31,10.90
2008,09,02,10,32,10.90
2008,09,02,10,33,10.90
2008,09,02,10,34,11.00
2008,09,02,10,35,11.10
2008,09,02,10,36,11.10
2008,09,02,10,37,11.10
2008,09,02,10,38,11.10
2008,09,02,10,39,11.20
2008,09,02,10,40,11.20
2008,09,02,10,41,11.20
2008,09,02,10,42,11.20
2008,09,02,10,43,11.30
2008,09,02,10,44,11.30
2008,09,02,10,45,11.30
2008,09,02,10,46,11.30
2008,09,02,10,47,11.30
2008,09,02,10,48,11.30
2008,09,02,10,49,11.30
2008,09,02,10,50,11.30
2008,09,02,10,51,11.30
2008,09,02,10,52,11.20
2008,09,02,10,53,11.10
2008,09,02,10,54,11.10
2008,09,02,10,55,11.10
2008,09,02,10,56,11.10
2008,09,02,10,57,11.10
2008,09,02,10,58,11.10
2008,09,02,10,59,11.10
2008,09,02,11,00,11.10
2008,09,02,11,01,11.10
2008,09,02,11,02,11.10
2008,09,02,11,03,11.10
2008,09,02,11,04,11.10
2008,09,02,11,05,11.10
2008,09,02,11,06,11.10
2008,09,02,11,07,11.20
2008,09,02,11,08,11.30
2008,09,02,11,09,11.30
2008,09,02,11,10,11.30
2008,09,02,11,11,11.30
2008,09,02,11,12,11.40
2008,09,02,11,13,11.40
2008,09,02,11,14,11.40
2008,09,02,11,15,11.40
2008,09,02,11,16,11.40
2008,09,02,11,17,11.40
2008,09,02,11,18,11.40
2008,09,02,11,19,11.40
2008,09,02,11,20,11.40
2008,09,02,11,21,11.30
2008,09,02,11,22,11.30
2008,09,02,11,23,11.30
2008,09,02,11,24,11.30
2008,09,02,11,25,11.40
2008,09,02,11,26,11.40
2008,09,02,11,27,11.40
2008,09,02,11,28,11.40
2008,09,02,11,29,11.40
2008,09,02,11,30,11.40
2008,09,02,11,31,11.40
2008,09,02,11,32,11.50
2008,09,02,11,33,11.60
2008,09,02,11,34,11.60
2008,09,02,11,35,11.70
2008,09,02,11,36,11.80
2008,09,02,11,37,11.80
2008,09,02,11,38,11.90
2008,09,02,11,39,12.00
2008,09,02,11,40,12.00
2008,09,02,11,41,12.00
2008,09,02,11,42,12.10
2008,09,02,11,43,12.20
2008,09,02,11,44,12.20
2008,09,02,11,45,12.30
2008,09,02,11,46,12.30
2008,09,02,11,47,12.20
2008,09,02,11,48,12.30
2008,09,02,11,49,12.30
2008,09,02,11,50,12.30
2008,09,02,11,51,12.30
2008,09,02,11,52,12.30
2008,09,02,11,53,12.30
2008,09,02,11,54,12.30
2008,09,02,11,55,12.40
2008,09,02,11,56,12.40
2008,09,02,11,57,12.40
2008,09,02,11,58,12.40
2008,09,02,11,59,12.50
2008,09,02,12,00,12.50
2008,09,02,12,01,12.50
2008,09,02,12,02,12.50
2008,09,02,12,03,12.50
2008,09,02,12,04,12.50
2008,09,02,12,05,12.50
2008,09,02,12,06,12.50
2008,09,02,12,07,12.60
2008,09,02,12,08,12.70
2008,09,02,12,09,12.70
2008,09,02,12,10,12.80
2008,09,02,12,11,12.80
2008,09,02,12,12,13.00
2008,09,02,12,13,13.10
2008,09,02,12,14,13.10
2008,09,02,12,15,13.10
2008,09,02,12,16,13.20
2008,09,02,12,17,13.30
2008,09,02,12,18,13.40
2008,09,02,12,19,13.50
2008,09,02,12,20,13.50
2008,09,02,12,21,13.60
2008,09,02,12,22,13.60
2008,09,02,12,23,13.60
2008,09,02,12,24,13.60
2008,09,02,12,25,13.60
2008,09,02,12,26,13.60
2008,09,02,12,27,13.60
2008,09,02,12,28,13.60
2008,09,02,12,29,13.60
2008,09,02,12,30,13.60
2008,09,02,12,31,13.60
2008,09,02,12,32,13.60
2008,09,02,12,33,13.50
2008,09,02,12,34,13.40
2008,09,02,12,35,13.40
2008,09,02,12,36,13.40
2008,09,02,12,37,13.40
2008,09,02,12,38,13.40
2008,09,02,12,39,13.40
2008,09,02,12,40,13.40
2008,09,02,12,41,13.40
2008,09,02,12,42,13.40
2008,09,02,12,43,13.40
2008,09,02,12,44,13.40
2008,09,02,12,45,13.50
2008,09,02,12,46,13.50
2008,09,02,12,47,13.50
2008,09,02,12,48,13.60
2008,09,02,12,49,13.70
2008,09,02,12,50,13.80
2008,09,02,12,51,13.90
2008,09,02,12,52,14.00
2008,09,02,12,53,14.10
2008,09,02,12,54,14.10
2008,09,02,12,55,14.10
2008,09,02,12,56,14.10
2008,09,02,12,57,14.10
2008,09,02,12,58,14.10
2008,09,02,12,59,14.00
2008,09,02,13,00,14.00
2008,09,02,13,01,13.90
2008,09,02,13,02,13.90
2008,09,02,13,03,13.90
2008,09,02,13,04,13.90
2008,09,02,13,05,13.90
2008,09,02,13,06,13.90
2008,09,02,13,07,13.90
2008,09,02,13,08,13.90
2008,09,02,13,09,13.80
2008,09,02,13,10,13.80
2008,09,02,13,11,13.80
2008,09,02,13,12,13.80
2008,09,02,13,13,13.70
2008,09,02,13,14,13.70
2008,09,02,13,15,13.70
2008,09,02,13,16,13.70
2008,09,02,13,17,13.70
2008,09,02,13,18,13.90
2008,09,02,13,19,13.90
2008,09,02,13,20,14.00
2008,09,02,13,21,14.10
2008,09,02,13,22,14.20
2008,09,02,13,23,14.20
2008,09,02,13,24,14.20
2008,09,02,13,25,14.20
2008,09,02,13,26,14.20
2008,09,02,13,27,14.20
2008,09,02,13,28,14.20
2008,09,02,13,29,14.20
2008,09,02,13,30,14.20
2008,09,02,13,31,14.20
2008,09,02,13,32,14.20
2008,09,02,13,33,14.20
2008,09,02,13,34,14.30
2008,09,02,13,35,14.30
2008,09,02,13,36,14.40
2008,09,02,13,37,14.40
2008,09,02,13,38,14.40
2008,09,02,13,39,14.40
2008,09,02,13,40,14.20
2008,09,02,13,41,14.20
2008,09,02,13,42,14.20
2008,09,02,13,43,14.20
2008,09,02,13,44,14.30
2008,09,02,13,45,14.40
2008,09,02,13,46,14.50
2008,09,02,13,47,14.60
2008,09,02,13,48,14.70
2008,09,02,13,49,14.80
2008,09,02,13,50,14.80
2008,09,02,13,51,14.80
2008,09,02,13,52,14.80
2008,09,02,13,53,14.80
2008,09,02,13,54,14.90
2008,09,02,13,55,14.90
2008,09,02,13,56,15.00
2008,09,02,13,57,15.10
2008,09,02,13,58,15.20
2008,09,02,13,59,15.20
2008,09,02,14,00,15.10
2008,09,02,14,01,15.10
2008,09,02,14,02,15.10
2008,09,02,14,03,15.10
2008,09,02,14,04,15.10
2008,09,02,14,05,15.10
2008,09,02,14,06,15.10
2008,09,02,14,07,15.20
2008,09,02,14,08,15.30
2008,09,02,14,09,15.30
2008,09,02,14,10,15.30
2008,09,02,14,11,15.30
2008,09,02,14,12,15.30
2008,09,02,14,13,15.40
2008,09,02,14,14,15.50
2008,09,02,14,15,15.50
2008,09,02,14,16,15.50
2008,09,02,14,17,15.60
2008,09,02,14,18,15.70
2008,09,02,14,19,15.70
2008,09,02,14,20,15.80
2008,09,02,14,21,15.80
2008,09,02,14,22,15.80
2008,09,02,14,23,15.80
2008,09,02,14,24,15.90
2008,09,02,14,25,15.90
2008,09,02,14,26,16.00
2008,09,02,14,27,16.10
2008,09,02,14,28,16.10
2008,09,02,14,29,15.90
2008,09,02,14,30,15.70
2008,09,02,14,31,15.50
2008,09,02,14,32,15.50
2008,09,02,14,33,15.40
2008,09,02,14,34,15.40
2008,09,02,14,35,15.40
2008,09,02,14,36,15.40
2008,09,02,14,37,15.30
2008,09,02,14,38,15.30
2008,09,02,14,39,15.20
2008,09,02,14,40,15.20
2008,09,02,14,41,15.10
2008,09,02,14,42,15.00
2008,09,02,14,43,14.90
2008,09,02,14,44,14.90
2008,09,02,14,45,14.90
2008,09,02,14,46,14.90
2008,09,02,14,47,15.00
2008,09,02,14,48,15.10
2008,09,02,14,49,15.10
2008,09,02,14,50,15.20
2008,09,02,14,51,15.30
2008,09,02,14,52,15.30
2008,09,02,14,53,15.40
2008,09,02,14,54,15.50
2008,09,02,14,55,15.60
2008,09,02,14,56,15.60
2008,09,02,14,57,15.70
2008,09,02,14,58,15.70
2008,09,02,14,59,15.80
2008,09,02,15,00,15.80
2008,09,02,15,01,15.80
2008,09,02,15,02,15.90
2008,09,02,15,03,15.90
2008,09,02,15,04,15.80
2008,09,02,15,05,15.80
2008,09,02,15,06,15.90
2008,09,02,15,07,15.90
2008,09,02,15,08,15.90
2008,09,02,15,09,15.90
2008,09,02,15,10,15.90
2008,09,02,15,11,15.80
2008,09,02,15,12,15.70
2008,09,02,15,13,15.70
2008,09,02,15,14,15.70
2008,09,02,15,15,15.70
2008,09,02,15,16,15.70
2008,09,02,15,17,15.80
2008,09,02,15,18,15.80
2008,09,02,15,19,15.80
2008,09,02,15,20,15.80
2008,09,02,15,21,15.80
2008,09,02,15,22,15.90
2008,09,02,15,23,16.10
2008,09,02,15,24,16.10
2008,09,02,15,25,16.20
2008,09,02,15,26,16.20
2008,09,02,15,27,16.30
2008,09,02,15,28,16.30
2008,09,02,15,29,16.30
2008,09,02,15,30,16.30
2008,09,02,15,31,16.40
2008,09,02,15,32,16.40
2008,09,02,15,33,16.40
2008,09,02,15,34,16.30
2008,09,02,15,35,16.30
2008,09,02,15,36,16.40
2008,09,02,15,37,16.40
2008,09,02,15,38,16.40
2008,09,02,15,39,16.40
2008,09,02,15,40,16.40
2008,09,02,15,41,16.40
2008,09,02,15,42,16.40
2008,09,02,15,43,16.40
2008,09,02,15,44,16.40
2008,09,02,15,45,16.40
2008,09,02,15,46,16.40
2008,09,02,15,47,16.40
2008,09,02,15,48,16.40
2008,09,02,15,49,16.60
2008,09,02,15,50,16.60
2008,09,02,15,51,16.60
2008,09,02,15,52,16.60
2008,09,02,15,53,16.60
2008,09,02,15,54,16.70
2008,09,02,15,55,16.70
2008,09,02,15,56,16.70
2008,09,02,15,57,16.80
2008,09,02,15,58,16.80
2008,09,02,15,59,16.80
2008,09,02,16,00,16.90
2008,09,02,16,01,16.80
2008,09,02,16,02,16.80
2008,09,02,16,03,16.80
2008,09,02,16,04,16.70
2008,09,02,16,05,16.70
2008,09,02,16,06,16.60
2008,09,02,16,07,16.70
2008,09,02,16,08,16.70
2008,09,02,16,09,16.80
2008,09,02,16,10,16.80
2008,09,02,16,11,16.70
2008,09,02,16,12,16.70
2008,09,02,16,13,16.60
2008,09,02,16,14,16.50
2008,09,02,16,15,16.40
2008,09,02,16,16,16.40
2008,09,02,16,17,16.40
2008,09,02,16,18,16.40
2008,09,02,16,19,16.40
2008,09,02,16,20,16.40
2008,09,02,16,21,16.40
2008,09,02,16,22,16.40
2008,09,02,16,23,16.40
2008,09,02,16,24,16.40
2008,09,02,16,25,16.50
2008,09,02,16,26,16.50
2008,09,02,16,27,16.40
2008,09,02,16,28,16.40
2008,09,02,16,29,16.40
2008,09,02,16,30,16.40
2008,09,02,16,31,16.40
2008,09,02,16,32,16.40
2008,09,02,16,33,16.50
2008,09,02,16,34,16.60
2008,09,02,16,35,16.50
2008,09,02,16,36,16.40
2008,09,02,16,37,16.40
2008,09,02,16,38,16.50
2008,09,02,16,39,16.60
2008,09,02,16,40,16.60
2008,09,02,16,41,16.70
2008,09,02,16,42,16.60
2008,09,02,16,43,16.50
2008,09,02,16,44,16.40
2008,09,02,16,45,16.30
2008,09,02,16,46,16.20
2008,09,02,16,47,16.20
2008,09,02,16,48,16.10
2008,09,02,16,49,16.10
2008,09,02,16,50,16.10
2008,09,02,16,51,16.10
2008,09,02,16,52,16.10
2008,09,02,16,53,16.10
2008,09,02,16,54,16.10
2008,09,02,16,55,16.00
2008,09,02,16,56,15.90
2008,09,02,16,57,15.80
2008,09,02,16,58,15.80
2008,09,02,16,59,15.80
2008,09,02,17,00,15.70
2008,09,02,17,01,15.60
2008,09,02,17,02,15.60
2008,09,02,17,03,15.60
2008,09,02,17,04,15.60
2008,09,02,17,05,15.60
2008,09,02,17,06,15.60
2008,09,02,17,07,15.60
2008,09,02,17,08,15.60
2008,09,02,17,09,15.60
2008,09,02,17,10,15.60
2008,09,02,17,11,15.70
2008,09,02,17,12,15.60
2008,09,02,17,13,15.60
2008,09,02,17,14,15.60
2008,09,02,17,15,15.50
2008,09,02,17,16,15.60
2008,09,02,17,17,15.60
2008,09,02,17,18,15.60
2008,09,02,17,19,15.60
2008,09,02,17,20,15.60
2008,09,02,17,21,15.60
2008,09,02,17,22,15.50
2008,09,02,17,23,15.40
2008,09,02,17,24,15.40
2008,09,02,17,25,15.30
2008,09,02,17,26,15.30
2008,09,02,17,27,15.20
2008,09,02,17,28,15.20
2008,09,02,17,29,15.20
2008,09,02,17,30,15.20
2008,09,02,17,31,15.20
2008,09,02,17,32,15.10
2008,09,02,17,33,15.10
2008,09,02,17,34,15.10
2008,09,02,17,35,15.20
2008,09,02,17,36,15.20
2008,09,02,17,37,15.20
2008,09,02,17,38,15.30
2008,09,02,17,39,15.30
2008,09,02,17,40,15.30
2008,09,02,17,41,15.40
2008,09,02,17,42,15.40
2008,09,02,17,43,15.50
2008,09,02,17,44,15.60
2008,09,02,17,45,15.60
2008,09,02,17,46,15.70
2008,09,02,17,47,15.80
2008,09,02,17,48,15.90
2008,09,02,17,49,16.10
2008,09,02,17,50,16.20
2008,09,02,17,51,16.30
2008,09,02,17,52,16.30
2008,09,02,17,53,16.30
2008,09,02,17,54,16.30
2008,09,02,17,55,16.30
2008,09,02,17,56,16.20
2008,09,02,17,57,16.20
2008,09,02,17,58,16.20
2008,09,02,17,59,16.20
2008,09,02,18,00,16.10
2008,09,02,18,01,16.10
2008,09,02,18,02,16.10
2008,09,02,18,03,16.00
2008,09,02,18,04,15.90
2008,09,02,18,05,15.90
2008,09,02,18,06,15.80
2008,09,02,18,07,15.80
2008,09,02,18,08,15.70
2008,09,02,18,09,15.70
2008,09,02,18,10,15.70
2008,09,02,18,11,15.60
2008,09,02,18,12,15.60
2008,09,02,18,13,15.60
2008,09,02,18,14,15.60
2008,09,02,18,15,15.50
2008,09,02,18,16,15.50
2008,09,02,18,17,15.50
2008,09,02,18,18,15.50
2008,09,02,18,19,15.50
2008,09,02,18,20,15.50
2008,09,02,18,21,15.40
2008,09,02,18,22,15.40
2008,09,02,18,23,15.40
2008,09,02,18,24,15.40
2008,09,02,18,25,15.40
2008,09,02,18,26,15.40
2008,09,02,18,27,15.40
2008,09,02,18,28,15.50
2008,09,02,18,29,15.40
2008,09,02,18,30,15.40
2008,09,02,18,31,15.40
2008,09,02,18,32,15.30
2008,09,02,18,33,15.30
2008,09,02,18,34,15.30
2008,09,02,18,35,15.30
2008,09,02,18,36,15.30
2008,09,02,18,37,15.30
2008,09,02,18,38,15.30
2008,09,02,18,39,15.30
2008,09,02,18,40,15.20
2008,09,02,18,41,15.20
2008,09,02,18,42,15.10
2008,09,02,18,43,15.10
2008,09,02,18,44,15.00
2008,09,02,18,45,15.00
2008,09,02,18,46,15.00
2008,09,02,18,47,15.00
2008,09,02,18,48,14.90
2008,09,02,18,49,14.90
2008,09,02,18,50,14.90
2008,09,02,18,51,14.80
2008,09,02,18,52,14.80
2008,09,02,18,53,14.80
2008,09,02,18,54,14.80
2008,09,02,18,55,14.90
2008,09,02,18,56,14.90
2008,09,02,18,57,14.90
2008,09,02,18,58,14.80
2008,09,02,18,59,14.80
2008,09,02,19,00,14.80
2008,09,02,19,01,14.80
2008,09,02,19,02,14.70
2008,09,02,19,03,14.70
2008,09,02,19,04,14.60
2008,09,02,19,05,14.60
2008,09,02,19,06,14.60
2008,09,02,19,07,14.60
2008,09,02,19,08,14.60
2008,09,02,19,09,14.60
2008,09,02,19,10,14.60
2008,09,02,19,11,14.60
2008,09,02,19,12,14.60
2008,09,02,19,13,14.60
2008,09,02,19,14,14.60
2008,09,02,19,15,14.50
2008,09,02,19,16,14.50
2008,09,02,19,17,14.50
2008,09,02,19,18,14.50
2008,09,02,19,19,14.50
2008,09,02,19,20,14.40
2008,09,02,19,21,14.40
2008,09,02,19,22,14.40
2008,09,02,19,23,14.40
2008,09,02,19,24,14.40
2008,09,02,19,25,14.40
2008,09,02,19,26,14.40
2008,09,02,19,27,14.30
2008,09,02,19,28,14.30
2008,09,02,19,29,14.30
2008,09,02,19,30,14.30
2008,09,02,19,31,14.20
2008,09,02,19,32,14.20
2008,09,02,19,33,14.20
2008,09,02,19,34,14.20
2008,09,02,19,35,14.20
2008,09,02,19,36,14.20
2008,09,02,19,37,14.20
2008,09,02,19,38,14.20
2008,09,02,19,39,14.20
2008,09,02,19,40,14.10
2008,09,02,19,41,14.10
2008,09,02,19,42,14.00
2008,09,02,19,43,14.00
2008,09,02,19,44,14.00
2008,09,02,19,45,14.00
2008,09,02,19,46,14.00
2008,09,02,19,47,14.00
2008,09,02,19,48,14.00
2008,09,02,19,49,14.10
2008,09,02,19,50,14.10
2008,09,02,19,51,14.10
2008,09,02,19,52,14.10
2008,09,02,19,53,14.10
2008,09,02,19,54,14.10
2008,09,02,19,55,14.10
2008,09,02,19,56,14.20
2008,09,02,19,57,14.20
2008,09,02,19,58,14.20
2008,09,02,19,59,14.20
2008,09,02,20,00,14.20